User: anonymous   Login
Location: Unspecified
(0.0000°N, 0.0000°E)
Time: 02:35:42
(UTC+00:00)
Language:

PLEIADES HR1 - Orbit

View from above orbital plane
View from above orbital plane
View from above satellite
View from above satellite

Ground track
Ground track

The orbit data is extracted from the following two-line orbital elements,

1 38012U 11076F   14354.75482881  .00000911  00000-0  20593-3 0  3749
2 38012 098.1805 067.0160 0000976 104.4067 255.7203 14.58529153160296
Epoch (UTC): 20 December 2014 18:06:57
Eccentricity: 0.0000976
inclination: 98.1805°
perigee height: 697 km
apogee height: 698 km
right ascension of ascending node: 67.0160°
argument of perigee: 104.4067°
revolutions per day: 14.58529153
mean anomaly at epoch: 255.7203°
orbit number at epoch: 16029

The dashed part of the orbit path shows where the satellite is in the earth's shadow,  

DLR